[[{"header":{"parameterUnit":"m.s-1","parameterCategory":2,"la1":30.2991,"la2":30.254,"lo1":-89.0895,"lo2":-89.0444,"dy":0.0017,"dx":0.0017,"nx":28,"ny":28,"refTime":"2024-08-05T09:00:00:Z","depth":"0","parameterNumber":2,"parameterNumberName":"U-component_of_CURRENTS"},"data":[0,0,0,0,0,0,0,0,0,0,0,0,0,0,0,0,0,0,0,0,0,0,0,0,0,0,0,0,0,0,0,0,0,0,0,0,0,0,0,0,0,0,0,0,0,0,0,0,0,0,0,0,0,0,0,0,0,0,0.2221,0.2222,0,0.2225,0.2224,0.2224,0.2199,0.2199,0.2199,0.2199,0.2189,0.2189,0.2189,0,0,0,0,0,0,0,0,0,0,0,0,0,0.2215,0.2215,0.2221,0.2222,0.2222,0.2225,0.2224,0.2224,0.2199,0.2199,0.2199,0.2199,0.2189,0.2189,0.2189,0,0,0,0,0,0,0,0,0,0,0,0,0,0.2213,0.2215,0.2221,0.2215,0.2214,0.2225,0.2224,0.2224,0.2199,0.2199,0.2199,0.2199,0.2189,0.2189,0.2189,0.2194,0,0,0.2188,0.2188,0,0,0,0,0,0,0,0,0.2213,0.2212,0.2215,0.2215,0.2215,0.2216,0.2219,0.2215,0.22,0.2199,0.2199,0.2199,0.2201,0.22,0.2193,0.2193,0.2193,0.2188,0.2188,0.2188,0.2188,0,0,0,0,0,0,0,0.2213,0.2212,0.2217,0.2216,0.2216,0.2219,0.2218,0.2218,0.2197,0.2199,0.2199,0.2208,0.22,0.2193,0.2193,0.2193,0.2188,0.2188,0.2188,0.2188,0.2247,0.2249,0,0,0,0,0,0,0.2223,0.2212,0.2217,0.2218,0.2219,0.222,0.2218,0.2212,0.2197,0.2197,0.2208,0.2207,0.2194,0.2193,0.2192,0.2255,0.2188,0.2188,0.2188,0.2245,0.2247,0.2249,0,0,0,0,0,0,0.2222,0.2223,0.2217,0.222,0.2221,0.2221,0.2214,0.2212,0.2211,0.2205,0.2203,0.2211,0.2193,0.2193,0.2208,0.2253,0.2188,0.2188,0.2243,0.2246,0.2248,0.2344,0,0,0,0,0,0,0.2222,0.2222,0.2218,0.2221,0.2221,0.223,0.2214,0.2212,0.222,0.2218,0.2207,0.2205,0.2193,0.2208,0.2208,0.2251,0.2188,0.2241,0.2245,0.2247,0.2339,0.235,0.2359,0,0,0,0,0,0.2221,0.2213,0.2217,0.2218,0.2216,0.2231,0.2231,0.2227,0.2221,0.2224,0.2223,0.2206,0.2228,0.2209,0.2208,0.2253,0.224,0.2244,0.2247,0.2335,0.2348,0.2359,0,0,0,0,0,0,0.2202,0.2211,0.2215,0.2208,0.2226,0.2229,0.2232,0.2234,0.2234,0.2234,0.2221,0.222,0.2252,0.2236,0.2216,0.2279,0.2233,0.2237,0.23,0.2312,0.2322,0.2355,0.2188,0,0,0,0,0,0.22,0.2196,0.2215,0.2211,0.2223,0.2231,0.2236,0.224,0.2245,0.2244,0.2244,0.2248,0.2266,0.2274,0.2278,0.2308,0.234,0.2338,0.2348,0.2356,0.2383,0.2454,0.2474,0.2261,0.2261,0.2261,0,0,0.2188,0.2197,0.2192,0.2208,0.2218,0.2253,0.2231,0.2247,0.2285,0.2245,0.2285,0.2279,0.228,0.2319,0.2333,0.2312,0.244,0.2361,0.2369,0.2391,0.246,0.2481,0.25,0.2264,0.2263,0.2263,0,0,0.2185,0.2178,0.2188,0.2213,0.2245,0.226,0.2272,0.2291,0.2307,0.2342,0.2335,0.2361,0.237,0.2397,0.2407,0.2474,0.2487,0.2469,0.2552,0.2621,0.264,0.2656,0.2755,0.278,0.2478,0.2478,0.2478,0,0.2177,0.22,0.2194,0.223,0.2267,0.2272,0.232,0.2338,0.2363,0.2393,0.2367,0.2426,0.2418,0.2496,0.2522,0.2501,0.2548,0.2507,0.2637,0.2654,0.2669,0.2766,0.2792,0.2483,0.2483,0.2482,0.2482,0,0.2197,0.2229,0.2242,0.2296,0.2325,0.2365,0.2408,0.2438,0.2458,0.2484,0.2552,0.255,0.2586,0.2593,0.2579,0.269,0.2694,0.2639,0.2611,0.2697,0.2793,0.2818,0.249,0.2489,0.2487,0.2486,0,0,0.2164,0.2244,0.2253,0.2313,0.2375,0.241,0.2475,0.255,0.2601,0.2631,0.2707,0.2748,0.2743,0.2757,0.2747,0.2813,0.2966,0.2783,0.2784,0.2891,0.3157,0.3022,0.3036,0.2934,0.2938,0.2942,0.3192,0,0.22,0.2292,0.2316,0.2422,0.2488,0.2525,0.2586,0.2647,0.2687,0.2752,0.2788,0.2839,0.2807,0.2825,0.2892,0.2935,0.3033,0.2906,0.305,0.3055,0.2931,0.306,0.2796,0.2984,0.3217,0.3221,0.3224,0,0.2233,0.2301,0.2407,0.2526,0.2553,0.2606,0.2717,0.2766,0.2847,0.2873,0.2935,0.2947,0.3058,0.2993,0.3172,0.3092,0.3151,0.3188,0.3197,0.3054,0.2965,0.2928,0.3021,0.2874,0.3263,0.326,0.3257,0,0.2263,0.2374,0.247,0.2512,0.2627,0.268,0.273,0.2807,0.2866,0.2949,0.2999,0.3099,0.3158,0.3249,0.3319,0.3262,0.351,0.3428,0.3384,0.3377,0.3173,0.3138,0.3141,0.3583,0.3583,0.3582,0.3581,0,0.2328,0.242,0.2491,0.2558,0.2662,0.2713,0.2814,0.2863,0.2942,0.3019,0.3059,0.3137,0.3224,0.3349,0.34,0.3484,0.3584,0.3448,0.3439,0.3198,0.3164,0.3037,0.3014,0.3592,0.3589,0.3588,0.3586,0,0.2416,0.2444,0.2571,0.2672,0.269,0.2772,0.2862,0.2934,0.2986,0.3089,0.3123,0.3227,0.3358,0.3459,0.3616,0.3578,0.3535,0.3675,0.34,0.335,0.3079,0.3073,0.303,0.2962,0.366,0.3658,0.3656,0,0.2497,0.2561,0.2651,0.2696,0.2755,0.2846,0.2899,0.2952,0.3017,0.3135,0.3195,0.3335,0.3406,0.3585,0.3546,0.3632,0.3528,0.3423,0.3236,0.3069,0.3059,0.2944,0.2883,0.3044,0.3037,0.3032,0.3028,0,0.2671,0.2678,0.2772,0.2826,0.2882,0.2946,0.3017,0.3061,0.3119,0.3179,0.3255,0.331,0.3402,0.3316,0.3381,0.3373,0.3165,0.3313,0.3209,0.2649,0.246,0.2384,0.2914,0.2981,0.2986,0.2989,0.2992,0.2994,0.2804,0.2876,0.2924,0.2979,0.3016,0.3031,0.3053,0.3104,0.3147,0.3168,0.3244,0.3214,0.3082,0.3085,0.3075,0.2766,0.2889,0.2588,0.2632,0.2561,0.2353,0.279,0.2773,0.2777,0.2779,0.2782,0.2784,0,0.2967,0.2997,0.3063,0.3086,0.3098,0.3088,0.3116,0.3082,0.3075,0.3066,0.3069,0.2823,0.2663,0.2529,0.222,0.2081,0.1986,0.2005,0.1782,0.1791,0.2227,0.2045,0.1779,0.178,0.178,0.178,0.178,0.178,0.3059,0.313,0.3118,0.3124,0.3123,0.3071,0.3053,0.2983,0.2924,0.2705,0.2505,0.2432,0.2189,0.1863,0.1565,0.1527,0.1431,0.1306,0.1454,0.1716,0.1772,0.1825,0.1644,0.1299,0.1298,0.082,0.0817,0.0814]},{"header":{"parameterUnit":"m.s-1","parameterCategory":2,"la1":30.2991,"la2":30.254,"lo1":-89.0895,"lo2":-89.0444,"dy":0.0017,"dx":0.0017,"nx":28,"ny":28,"refTime":"2024-08-05T09:00:00:Z","depth":"0","parameterNumber":3,"parameterNumberName":"V-component_of_CURRENTS"},"data":[0,0,0,0,0,0,0,0,0,0,0,0,0,0,0,0,0,0,0,0,0,0,0,0,0,0,0,0,0,0,0,0,0,0,0,0,0,0,0,0,0,0,0,0,0,0,0,0,0,0,0,0,0,0,0,0,0,0,-0.0407,-0.0406,0,-0.0375,-0.0374,-0.0374,-0.0347,-0.0347,-0.0347,-0.0347,-0.037,-0.037,-0.0371,0,0,0,0,0,0,0,0,0,0,0,0,0,-0.0429,-0.0428,-0.0407,-0.0406,-0.0406,-0.0375,-0.0374,-0.0373,-0.0347,-0.0347,-0.0347,-0.0347,-0.0369,-0.037,-0.0371,0,0,0,0,0,0,0,0,0,0,0,0,0,-0.0408,-0.0428,-0.0407,-0.0391,-0.0389,-0.0375,-0.0374,-0.0373,-0.0347,-0.0347,-0.0347,-0.0346,-0.0369,-0.037,-0.0371,-0.0379,0,0,-0.0374,-0.0375,0,0,0,0,0,0,0,0,-0.0409,-0.0407,-0.0393,-0.0392,-0.039,-0.0367,-0.039,-0.0379,-0.0347,-0.036,-0.0347,-0.0346,-0.0375,-0.0376,-0.0366,-0.038,-0.0381,-0.0374,-0.0375,-0.0375,-0.0376,0,0,0,0,0,0,0,-0.0411,-0.0408,-0.0392,-0.0393,-0.0391,-0.038,-0.0377,-0.0388,-0.0368,-0.0359,-0.0358,-0.0358,-0.0375,-0.0365,-0.0366,-0.0382,-0.0374,-0.0375,-0.0376,-0.0376,-0.0427,-0.0427,0,0,0,0,0,0,-0.042,-0.041,-0.0393,-0.0391,-0.0402,-0.038,-0.0376,-0.0372,-0.0367,-0.0366,-0.0358,-0.0357,-0.0363,-0.0365,-0.0367,-0.0398,-0.0375,-0.0376,-0.0377,-0.0426,-0.0427,-0.0427,0,0,0,0,0,0,-0.0421,-0.0419,-0.0394,-0.0402,-0.0398,-0.038,-0.0376,-0.0372,-0.0362,-0.0366,-0.0365,-0.0352,-0.0363,-0.0366,-0.0377,-0.0398,-0.0377,-0.0378,-0.0425,-0.0426,-0.0427,-0.0447,0,0,0,0,0,0,-0.0422,-0.0419,-0.0416,-0.0402,-0.0398,-0.0383,-0.0376,-0.0371,-0.0363,-0.0361,-0.0361,-0.0362,-0.0363,-0.0376,-0.0378,-0.0399,-0.0378,-0.0424,-0.0425,-0.0427,-0.0445,-0.0448,-0.0451,0,0,0,0,0,-0.0422,-0.0411,-0.0416,-0.0414,-0.0396,-0.0383,-0.0379,-0.0365,-0.0363,-0.0356,-0.036,-0.0362,-0.0387,-0.0377,-0.038,-0.0402,-0.0423,-0.0425,-0.0427,-0.0444,-0.0448,-0.0451,0,0,0,0,0,0,-0.0411,-0.0408,-0.0413,-0.04,-0.0396,-0.0379,-0.0368,-0.0366,-0.0361,-0.0362,-0.0367,-0.0369,-0.0385,-0.0391,-0.038,-0.0421,-0.0408,-0.041,-0.042,-0.0424,-0.0427,-0.0426,-0.0379,0,0,0,0,0,-0.0412,-0.0405,-0.0405,-0.0393,-0.0393,-0.0384,-0.0377,-0.0372,-0.0368,-0.0365,-0.0371,-0.0381,-0.0394,-0.0406,-0.0411,-0.0435,-0.039,-0.0453,-0.0456,-0.0458,-0.046,-0.0402,-0.0399,-0.0433,-0.0433,-0.0433,0,0,-0.0404,-0.0401,-0.0397,-0.0391,-0.0385,-0.039,-0.0378,-0.0368,-0.0378,-0.0371,-0.0384,-0.0386,-0.0399,-0.042,-0.043,-0.043,-0.0421,-0.046,-0.0462,-0.0463,-0.0403,-0.0399,-0.0396,-0.0434,-0.0434,-0.0434,0,0,-0.0387,-0.0384,-0.0379,-0.0383,-0.0382,-0.0383,-0.0384,-0.0379,-0.0381,-0.0394,-0.0395,-0.0408,-0.0427,-0.0442,-0.0453,-0.0478,-0.0431,-0.0486,-0.0511,-0.0454,-0.045,-0.0446,-0.036,-0.0349,-0.0497,-0.0497,-0.0497,0,-0.0381,-0.0385,-0.0374,-0.0379,-0.0392,-0.0385,-0.0398,-0.0397,-0.0399,-0.0404,-0.0401,-0.0421,-0.0438,-0.0464,-0.0483,-0.0485,-0.0428,-0.0496,-0.0455,-0.0451,-0.0446,-0.0359,-0.0346,-0.0499,-0.0498,-0.0498,-0.0498,0,-0.0369,-0.0384,-0.038,-0.0395,-0.0398,-0.0406,-0.0417,-0.0418,-0.0425,-0.0427,-0.044,-0.0452,-0.0459,-0.0481,-0.0497,-0.0493,-0.0452,-0.0454,-0.0441,-0.0443,-0.0352,-0.0338,-0.05,-0.05,-0.0499,-0.0499,0,0,-0.0341,-0.0372,-0.0374,-0.0396,-0.0418,-0.0415,-0.0435,-0.045,-0.044,-0.0458,-0.0444,-0.05,-0.0486,-0.0498,-0.0512,-0.0495,-0.0423,-0.0473,-0.0469,-0.0377,-0.026,-0.0249,-0.0231,-0.0408,-0.0406,-0.0405,-0.0199,0,-0.035,-0.0376,-0.0387,-0.0418,-0.0444,-0.0452,-0.046,-0.0465,-0.0462,-0.0438,-0.0459,-0.0442,-0.0497,-0.0481,-0.0481,-0.0427,-0.0391,-0.0477,-0.0281,-0.0275,-0.0256,-0.0218,-0.0187,-0.0003,-0.0185,-0.0182,-0.018,0,-0.0357,-0.0375,-0.0417,-0.0448,-0.0453,-0.0459,-0.0462,-0.0465,-0.044,-0.0427,-0.0423,-0.0401,-0.0395,-0.0419,-0.0341,-0.0385,-0.033,-0.0294,-0.0284,-0.026,-0.0238,-0.0036,0.003,-0.0034,-0.0158,-0.016,-0.0161,0,-0.0372,-0.0404,-0.0443,-0.0458,-0.0478,-0.0483,-0.0479,-0.0463,-0.0431,-0.0396,-0.0331,-0.0339,-0.0267,-0.0249,-0.0187,-0.0245,-0.0054,-0.0113,-0.0047,-0.0043,0.0025,0.0031,0.0058,-0.0035,-0.0036,-0.0036,-0.0037,0,-0.0407,-0.0437,-0.0446,-0.0469,-0.0461,-0.048,-0.0448,-0.0438,-0.038,-0.0288,-0.031,-0.0199,-0.0213,-0.0108,-0.0116,-0.0012,0.0018,-0.0031,0.0009,0.002,0.0022,0.0001,-0.0045,-0.0028,-0.003,-0.0032,-0.0033,0,-0.0438,-0.0464,-0.0484,-0.0487,-0.0477,-0.0463,-0.0399,-0.0345,-0.0311,-0.0176,-0.0142,-0.0042,0.0102,0.011,0.0208,0.0137,0.0191,0.0231,0.0254,0.0289,0.0198,0.0151,0.0261,0.0261,0.0302,0.0304,0.0305,0,-0.0467,-0.0485,-0.0465,-0.0432,-0.0432,-0.0399,-0.0343,-0.0312,-0.0228,-0.0048,0.0052,0.0222,0.0395,0.0517,0.0452,0.0473,0.0374,0.0442,0.0288,0.0213,0.0191,0.0152,0.014,0.04,0.0402,0.0404,0.0405,0,-0.0481,-0.0466,-0.0453,-0.0385,-0.033,-0.0261,-0.0179,-0.0105,-0.0007,0.0147,0.0401,0.0556,0.0692,0.0755,0.0721,0.067,0.0391,0.047,0.04,0.027,0.023,0.0244,0.0259,0.0419,0.0418,0.0417,0.0416,0.0415,-0.0447,-0.0421,-0.0372,-0.0309,-0.0224,-0.0109,-0.0033,0.0107,0.0287,0.0559,0.0678,0.0971,0.0954,0.0932,0.0832,0.0593,0.0572,0.0468,0.0429,0.0405,0.0351,0.0392,0.057,0.0569,0.0569,0.0568,0.0568,0,-0.0391,-0.0355,-0.0287,-0.0188,-0.0059,-0.0046,0.0104,0.0222,0.0478,0.0787,0.1048,0.1258,0.1212,0.105,0.0751,0.0572,0.0481,0.046,0.04,0.0395,0.0459,0.0401,0.0541,0.0541,0.0541,0.0541,0.0541,0.0541,-0.0349,-0.0283,-0.0258,-0.0059,0.0037,0.0195,0.0287,0.0484,0.0702,0.1118,0.1368,0.1539,0.1438,0.0929,0.0595,0.0497,0.0372,0.0365,0.031,0.0309,0.0305,0.0301,0.0233,0.0336,0.0335,0.0268,0.0267,0.0266]}],[{"header":{"parameterUnit":"m.s-1","parameterCategory":2,"la1":30.2991,"la2":30.254,"lo1":-89.0895,"lo2":-89.0444,"dy":0.0017,"dx":0.0017,"nx":28,"ny":28,"refTime":"2024-08-05T09:00:00:Z","depth":"2","parameterNumber":2,"parameterNumberName":"U-component_of_CURRENTS"},"data":[0,0,0,0,0,0,0,0,0,0,0,0,0,0,0,0,0,0,0,0,0,0,0,0,0,0,0,0,0,0,0,0,0,0,0,0,0,0,0,0,0,0,0,0,0,0,0,0,0,0,0,0,0,0,0,0,0,0,0.1558,0.1558,0,0.1585,0.1585,0.1586,0.1606,0.1606,0.1606,0.1606,0.1596,0.1596,0.1595,0,0,0,0,0,0,0,0,0,0,0,0,0,0.1564,0.1564,0.1558,0.1558,0.1558,0.1585,0.1586,0.1586,0.1606,0.1606,0.1606,0.1606,0.1596,0.1596,0.1595,0,0,0,0,0,0,0,0,0,0,0,0,0,0.1575,0.1564,0.1558,0.1569,0.1571,0.1585,0.1586,0.1586,0.1606,0.1606,0.1606,0.1605,0.1596,0.1596,0.1595,0.1595,0,0,0.1594,0.1594,0,0,0,0,0,0,0,0,0.1575,0.1575,0.1568,0.1569,0.157,0.159,0.1584,0.1586,0.1606,0.1595,0.1606,0.1605,0.1589,0.1589,0.1598,0.1594,0.1594,0.1594,0.1594,0.1594,0.1594,0,0,0,0,0,0,0,0.1574,0.1575,0.1571,0.1568,0.1569,0.1587,0.1588,0.1585,0.1593,0.1596,0.1597,0.1596,0.1589,0.1599,0.1598,0.1594,0.1594,0.1594,0.1594,0.1594,0.1634,0.1635,0,0,0,0,0,0,0.1563,0.1573,0.157,0.1572,0.1569,0.1587,0.1588,0.1585,0.1594,0.1595,0.1596,0.1597,0.1599,0.1598,0.1598,0.1648,0.1594,0.1594,0.1593,0.1632,0.1634,0.1635,0,0,0,0,0,0,0.1563,0.1563,0.1569,0.1572,0.1573,0.1586,0.1583,0.1586,0.1611,0.1594,0.1595,0.1619,0.1599,0.1598,0.1609,0.1646,0.1594,0.1593,0.1631,0.1633,0.1634,0.1716,0,0,0,0,0,0,0.1564,0.1563,0.1569,0.1571,0.1573,0.1588,0.1583,0.1586,0.1608,0.161,0.1614,0.1612,0.1599,0.161,0.1609,0.1644,0.1593,0.1629,0.1632,0.1634,0.1711,0.172,0.1728,0,0,0,0,0,0.1564,0.1567,0.157,0.157,0.1577,0.1588,0.1592,0.1602,0.161,0.1625,0.1628,0.1613,0.1624,0.1611,0.1609,0.1645,0.1628,0.1631,0.1634,0.1708,0.1718,0.1727,0,0,0,0,0,0,0.1566,0.1569,0.1572,0.1574,0.1586,0.1591,0.1605,0.1615,0.1632,0.1634,0.1624,0.1623,0.1654,0.1632,0.1618,0.1663,0.1626,0.1628,0.1683,0.1692,0.17,0.1754,0.1593,0,0,0,0,0,0.1571,0.1577,0.1581,0.1585,0.1593,0.1605,0.1616,0.1622,0.1629,0.1638,0.1641,0.1645,0.1663,0.1663,0.167,0.1685,0.1717,0.1708,0.1716,0.1723,0.1765,0.1814,0.1831,0.1644,0.1644,0.1644,0,0,0.157,0.1573,0.1576,0.1587,0.1598,0.1613,0.1613,0.1629,0.1653,0.1632,0.1668,0.1677,0.1676,0.1704,0.1715,0.1689,0.1798,0.1726,0.1732,0.1772,0.1819,0.1838,0.1854,0.1646,0.1646,0.1646,0,0,0.1578,0.158,0.1596,0.1602,0.1619,0.1627,0.1636,0.1653,0.1678,0.1698,0.171,0.175,0.174,0.1776,0.1784,0.184,0.1846,0.1826,0.1903,0.1949,0.1966,0.1981,0.2072,0.2095,0.182,0.1821,0.1821,0,0.1585,0.1592,0.1603,0.1616,0.1623,0.1636,0.1654,0.1681,0.1701,0.1737,0.1712,0.1786,0.1785,0.1865,0.1893,0.1865,0.19,0.1865,0.1963,0.1978,0.1992,0.2082,0.2106,0.1825,0.1824,0.1824,0.1823,0,0.1594,0.1608,0.1616,0.1638,0.1654,0.1663,0.1693,0.173,0.175,0.1778,0.1861,0.1879,0.1938,0.1935,0.1932,0.2041,0.204,0.1975,0.1943,0.2016,0.2106,0.2129,0.1831,0.1829,0.1828,0.1827,0,0,0.1592,0.162,0.1625,0.1644,0.1661,0.1678,0.173,0.179,0.1861,0.1882,0.1986,0.2029,0.2073,0.2092,0.2108,0.2148,0.2286,0.2113,0.2113,0.2217,0.2431,0.2247,0.2254,0.2225,0.2229,0.2232,0.2465,0,0.1602,0.1628,0.1643,0.1678,0.1693,0.1725,0.1781,0.184,0.19,0.2005,0.2062,0.2157,0.2122,0.2184,0.2225,0.2284,0.2347,0.2233,0.2336,0.2342,0.2176,0.2274,0.2036,0.2205,0.2488,0.2491,0.2494,0,0.1608,0.1624,0.1653,0.1714,0.1729,0.1759,0.1867,0.1927,0.2067,0.2124,0.2232,0.229,0.2432,0.2359,0.2512,0.2438,0.2467,0.248,0.2487,0.2307,0.2198,0.2171,0.2237,0.2533,0.253,0.2527,0.2524,0,0.1594,0.1641,0.1667,0.1673,0.1737,0.1785,0.1845,0.1965,0.2057,0.2239,0.232,0.2466,0.2562,0.2622,0.2656,0.2612,0.2784,0.2717,0.2587,0.2577,0.2395,0.2358,0.2822,0.2821,0.2821,0.282,0.282,0,0.1577,0.1604,0.1668,0.167,0.1751,0.1799,0.1926,0.2012,0.217,0.2288,0.2404,0.2507,0.2623,0.2714,0.2738,0.2738,0.2854,0.2653,0.2624,0.2414,0.2378,0.2658,0.2635,0.2829,0.2827,0.2825,0.2824,0,0.1562,0.1575,0.1636,0.1714,0.1742,0.1817,0.1967,0.2077,0.2201,0.2369,0.2439,0.2596,0.27,0.2775,0.289,0.282,0.285,0.2807,0.2571,0.2507,0.2619,0.2598,0.2757,0.2752,0.2748,0.2745,0.2743,0,0.1576,0.1602,0.1684,0.1748,0.1788,0.1898,0.1985,0.2096,0.22,0.2389,0.2463,0.2614,0.2658,0.2754,0.2698,0.2725,0.2792,0.2495,0.234,0.2656,0.2614,0.2599,0.2585,0.218,0.2173,0.2167,0.2162,0,0.1659,0.1685,0.1715,0.1815,0.1897,0.2001,0.2111,0.2154,0.2285,0.2362,0.2434,0.2474,0.2528,0.2411,0.2413,0.2382,0.247,0.2369,0.28,0.2174,0.2113,0.207,0.2075,0.211,0.2116,0.2119,0.2122,0.2124,0.1766,0.1791,0.1837,0.1921,0.2002,0.2072,0.2103,0.2174,0.2225,0.2234,0.2301,0.2224,0.2224,0.2067,0.2004,0.1958,0.2132,0.2035,0.2054,0.208,0.1912,0.1839,0.1762,0.1765,0.1768,0.177,0.1772,0,0.1903,0.1895,0.1975,0.1994,0.2036,0.2107,0.217,0.2098,0.205,0.2035,0.1993,0.1733,0.164,0.1664,0.1493,0.1461,0.1465,0.1409,0.1415,0.1466,0.1512,0.1316,0.1009,0.1007,0.1005,0.1003,0,0,0.198,0.2013,0.1985,0.201,0.2037,0.1982,0.199,0.1882,0.1799,0.1601,0.1502,0.1528,0.1568,0.1264,0.1219,0.1091,0.1269,0.1031,0.164,0.1697,0.1741,0.1866,0.1619,0,0,0,0,0]},{"header":{"parameterUnit":"m.s-1","parameterCategory":2,"la1":30.2991,"la2":30.254,"lo1":-89.0895,"lo2":-89.0444,"dy":0.0017,"dx":0.0017,"nx":28,"ny":28,"refTime":"2024-08-05T09:00:00:Z","depth":"2","parameterNumber":3,"parameterNumberName":"V-component_of_CURRENTS"},"data":[0,0,0,0,0,0,0,0,0,0,0,0,0,0,0,0,0,0,0,0,0,0,0,0,0,0,0,0,0,0,0,0,0,0,0,0,0,0,0,0,0,0,0,0,0,0,0,0,0,0,0,0,0,0,0,0,0,0,0.0076,0.0077,0,0.008,0.008,0.008,0.0065,0.0065,0.0064,0.0064,0.0047,0.0047,0.0047,0,0,0,0,0,0,0,0,0,0,0,0,0,0.0043,0.0044,0.0076,0.0077,0.0077,0.008,0.008,0.008,0.0065,0.0065,0.0064,0.0064,0.0047,0.0047,0.0047,0,0,0,0,0,0,0,0,0,0,0,0,0,0.0051,0.0044,0.0076,0.0072,0.0071,0.008,0.008,0.008,0.0065,0.0065,0.0064,0.0064,0.0047,0.0047,0.0047,0.0051,0,0,0.0045,0.0045,0,0,0,0,0,0,0,0,0.0051,0.0052,0.0072,0.0072,0.0072,0.0074,0.0062,0.007,0.0065,0.0065,0.0064,0.0064,0.0056,0.0055,0.0053,0.005,0.005,0.0045,0.0045,0.0045,0.0045,0,0,0,0,0,0,0,0.005,0.0052,0.0075,0.0072,0.0072,0.0065,0.0066,0.0064,0.006,0.0065,0.0064,0.0069,0.0055,0.0054,0.0053,0.0049,0.0045,0.0045,0.0045,0.0045,0.0032,0.0032,0,0,0,0,0,0,0.0056,0.0052,0.0075,0.0076,0.0063,0.0066,0.0067,0.0072,0.006,0.0059,0.0069,0.0068,0.0054,0.0053,0.0052,0.0053,0.0045,0.0045,0.0044,0.0033,0.0032,0.0032,0,0,0,0,0,0,0.0055,0.0058,0.0075,0.0066,0.0068,0.0068,0.0073,0.0072,0.0064,0.0064,0.0062,0.0061,0.0054,0.0052,0.005,0.0052,0.0044,0.0044,0.0033,0.0032,0.0032,0.0058,0,0,0,0,0,0,0.0054,0.0058,0.0056,0.0066,0.0068,0.0083,0.0073,0.0072,0.0069,0.0067,0.0057,0.0056,0.0054,0.0051,0.005,0.0052,0.0044,0.0033,0.0033,0.0032,0.0057,0.0058,0.0059,0,0,0,0,0,0.0053,0.0061,0.0056,0.0058,0.0068,0.0084,0.0084,0.0081,0.0068,0.007,0.0062,0.0056,0.0049,0.0051,0.005,0.0051,0.0033,0.0033,0.0032,0.0056,0.0058,0.0059,0,0,0,0,0,0,0.0048,0.006,0.0055,0.0066,0.0073,0.0082,0.0085,0.0078,0.0072,0.0067,0.0059,0.0057,0.0052,0.0048,0.0051,0.0045,0.0038,0.0037,0.0056,0.0058,0.0059,0.0132,0.0044,0,0,0,0,0,0.0046,0.0053,0.0063,0.0071,0.0075,0.0075,0.0077,0.0076,0.0077,0.0073,0.007,0.0061,0.0052,0.0052,0.0045,0.0048,0.006,0.0046,0.0047,0.0048,0.0106,0.0099,0.0106,0.0031,0.0031,0.0031,0,0,0.0045,0.0055,0.0057,0.007,0.0074,0.009,0.0075,0.0083,0.0094,0.0073,0.0082,0.0064,0.0051,0.0053,0.005,0.005,0.0069,0.0048,0.0049,0.0108,0.01,0.0108,0.0114,0.0031,0.0031,0.0031,0,0,0.0057,0.0057,0.0067,0.008,0.0091,0.0096,0.0097,0.0104,0.0102,0.011,0.009,0.0082,0.0074,0.0072,0.0066,0.0072,0.0071,0.0054,0.013,0.012,0.0128,0.0134,0.0136,0.0143,0.0061,0.0061,0.0061,0,0.0052,0.0078,0.0072,0.0094,0.0118,0.0099,0.0129,0.0121,0.0126,0.0157,0.0118,0.0137,0.009,0.0125,0.0114,0.0078,0.0085,0.0122,0.0125,0.0132,0.0138,0.0139,0.0146,0.0062,0.0062,0.0062,0.0062,0,0.008,0.0101,0.0113,0.0136,0.0154,0.0179,0.0182,0.0195,0.0189,0.0205,0.0239,0.0191,0.022,0.0174,0.0142,0.0171,0.0163,0.012,0.0127,0.0148,0.0146,0.0153,0.0064,0.0064,0.0063,0.0063,0,0,0.0073,0.0123,0.0127,0.0169,0.0189,0.0221,0.0241,0.0292,0.0346,0.0327,0.0415,0.0349,0.0352,0.0348,0.0298,0.0282,0.0275,0.0229,0.0228,0.0246,0.0279,0.0258,0.0263,0.0234,0.0236,0.0237,0.0253,0,0.01,0.0169,0.0178,0.0251,0.0299,0.0312,0.0349,0.0391,0.0416,0.049,0.0468,0.0503,0.0406,0.0416,0.0389,0.0309,0.0301,0.0278,0.0249,0.025,0.0238,0.0273,0.0265,0.0279,0.0259,0.0261,0.0261,0,0.0126,0.0184,0.0262,0.0362,0.0383,0.0411,0.0521,0.0548,0.0629,0.0655,0.0707,0.0704,0.0695,0.0594,0.0517,0.0511,0.0419,0.0348,0.0346,0.0342,0.0243,0.0258,0.0292,0.0273,0.0272,0.0271,0.027,0,0.0174,0.0247,0.0326,0.0356,0.0446,0.0491,0.0528,0.0609,0.0676,0.0765,0.0843,0.0848,0.0832,0.0756,0.06,0.0563,0.0524,0.0438,0.0352,0.0349,0.0352,0.0347,0.0415,0.0415,0.0415,0.0415,0.0414,0,0.023,0.0296,0.0351,0.041,0.0523,0.0545,0.067,0.0714,0.0809,0.0919,0.0925,0.1011,0.0867,0.0833,0.0694,0.0561,0.0588,0.041,0.0366,0.0355,0.035,0.0355,0.0348,0.0415,0.0415,0.0415,0.0415,0,0.0288,0.0319,0.0434,0.0528,0.0554,0.0638,0.0749,0.084,0.0899,0.1045,0.108,0.1117,0.1053,0.0937,0.0786,0.0655,0.0541,0.0485,0.0492,0.0449,0.0353,0.0346,0.0409,0.0408,0.0408,0.0408,0.0408,0,0.032,0.0375,0.0518,0.0575,0.0616,0.0721,0.0795,0.0882,0.0985,0.1116,0.1205,0.1198,0.1219,0.1033,0.0804,0.0614,0.0568,0.0476,0.0393,0.041,0.0359,0.0353,0.0348,0.0393,0.0393,0.0393,0.0393,0,0.0391,0.044,0.0564,0.0671,0.0758,0.0872,0.0977,0.109,0.1191,0.129,0.1397,0.1417,0.125,0.1054,0.0792,0.0651,0.0508,0.0463,0.05,0.0391,0.0394,0.0345,0.034,0.0391,0.0391,0.0391,0.0391,0.0391,0.0455,0.0558,0.0682,0.0782,0.088,0.099,0.1106,0.1218,0.1375,0.1506,0.151,0.1482,0.1284,0.0919,0.0723,0.0487,0.0489,0.0381,0.0382,0.0383,0.0374,0.0376,0.0368,0.0368,0.0368,0.0368,0.0369,0,0.0533,0.0624,0.0737,0.0906,0.1003,0.1017,0.1199,0.1311,0.1477,0.1523,0.1564,0.1333,0.1147,0.0917,0.0565,0.0379,0.0347,0.0314,0.0316,0.032,0.0323,0.031,0.0287,0.0286,0.0286,0.0285,0,0,0.0599,0.0732,0.0787,0.095,0.1032,0.1193,0.1295,0.1415,0.1484,0.1525,0.1451,0.1418,0.1156,0.0885,0.0655,0.0465,0.0423,0.0417,0.0501,0.0534,0.0539,0.0381,0.0368,0,0,0,0,0]}],[{"header":{"parameterUnit":"m.s-1","parameterCategory":2,"la1":30.2991,"la2":30.254,"lo1":-89.0895,"lo2":-89.0444,"dy":0.0017,"dx":0.0017,"nx":28,"ny":28,"refTime":"2024-08-05T09:00:00:Z","depth":"4","parameterNumber":2,"parameterNumberName":"U-component_of_CURRENTS"},"data":[0,0,0,0,0,0,0,0,0,0,0,0,0,0,0,0,0,0,0,0,0,0,0,0,0,0,0,0,0,0,0,0,0,0,0,0,0,0,0,0,0,0,0,0,0,0,0,0,0,0,0,0,0,0,0,0,0,0,0.0678,0.0678,0,0.0698,0.0698,0.0698,0.0747,0.0749,0.075,0.0751,0.0791,0.0791,0.0791,0,0,0,0,0,0,0,0,0,0,0,0,0,0.0656,0.0656,0.0678,0.0678,0.0678,0.0698,0.0698,0.0698,0.0747,0.0749,0.075,0.0751,0.0791,0.0791,0.0791,0,0,0,0,0,0,0,0,0,0,0,0,0,0.0669,0.0656,0.0678,0.0706,0.0708,0.0698,0.0698,0.0698,0.0747,0.0749,0.075,0.0752,0.0791,0.0791,0.0791,0.0759,0,0,0.0791,0.0791,0,0,0,0,0,0,0,0,0.0668,0.0669,0.0701,0.0704,0.0707,0.0722,0.0705,0.072,0.0747,0.0732,0.0751,0.0753,0.0769,0.0771,0.077,0.0761,0.0762,0.0791,0.0791,0.0791,0.0791,0,0,0,0,0,0,0,0.0667,0.0669,0.0685,0.0701,0.0705,0.0708,0.0712,0.0708,0.0741,0.0733,0.0737,0.0739,0.0771,0.077,0.0771,0.0763,0.0791,0.0791,0.0791,0.0791,0.0822,0.0823,0,0,0,0,0,0,0.0665,0.0668,0.0684,0.0686,0.0692,0.0707,0.0712,0.0715,0.0741,0.0746,0.0738,0.0742,0.0769,0.0771,0.0773,0.0802,0.0791,0.0791,0.0791,0.0821,0.0822,0.0823,0,0,0,0,0,0,0.0665,0.0666,0.0684,0.0678,0.068,0.0706,0.071,0.0715,0.0738,0.0744,0.075,0.0759,0.077,0.0773,0.0783,0.0802,0.0791,0.0791,0.0821,0.0822,0.0823,0.0818,0,0,0,0,0,0,0.0664,0.0666,0.0676,0.0678,0.0681,0.0689,0.0708,0.0714,0.0736,0.0742,0.0764,0.0768,0.0772,0.0783,0.0784,0.0801,0.0792,0.082,0.0821,0.0822,0.0817,0.0818,0.082,0,0,0,0,0,0.0663,0.0666,0.0676,0.0678,0.069,0.0689,0.0691,0.0714,0.0736,0.0742,0.0758,0.0768,0.0794,0.0783,0.0783,0.0802,0.0819,0.0821,0.0822,0.0816,0.0818,0.082,0,0,0,0,0,0,0.0663,0.0671,0.0682,0.0689,0.0695,0.0698,0.071,0.0722,0.0738,0.0753,0.0763,0.0767,0.0785,0.0793,0.0781,0.0818,0.0814,0.0816,0.081,0.0811,0.0813,0.0814,0.0792,0,0,0,0,0,0.0665,0.0671,0.0677,0.0684,0.069,0.0703,0.071,0.0724,0.0734,0.0745,0.0756,0.0776,0.0787,0.0799,0.0806,0.0815,0.0849,0.0834,0.0836,0.0837,0.084,0.0909,0.0917,0.0829,0.0829,0.0829,0,0,0.0666,0.0672,0.0676,0.0684,0.0695,0.0688,0.0713,0.0727,0.0723,0.0744,0.0753,0.0775,0.079,0.0804,0.0815,0.0816,0.0881,0.0839,0.084,0.0843,0.0912,0.0921,0.0928,0.083,0.083,0.083,0,0,0.0651,0.0679,0.0671,0.0675,0.069,0.0695,0.0703,0.0715,0.0731,0.0733,0.0756,0.0791,0.0796,0.0819,0.0829,0.0843,0.0882,0.0855,0.0866,0.0933,0.0941,0.0949,0.1004,0.1017,0.0861,0.0861,0.0861,0,0.0653,0.0639,0.0669,0.0657,0.0658,0.0698,0.0681,0.0696,0.0709,0.073,0.0739,0.079,0.0803,0.0836,0.0845,0.0847,0.089,0.0854,0.0936,0.0944,0.0951,0.1007,0.102,0.0861,0.0861,0.0861,0.0861,0,0.062,0.0614,0.0613,0.0611,0.0619,0.0616,0.0636,0.066,0.0689,0.071,0.0759,0.0785,0.0829,0.0839,0.0842,0.0907,0.0921,0.0925,0.0929,0.096,0.1016,0.1031,0.0861,0.0861,0.0861,0.0861,0,0,0.0602,0.059,0.059,0.058,0.0594,0.0598,0.0609,0.0634,0.0679,0.0702,0.0752,0.0779,0.0835,0.0851,0.088,0.0932,0.102,0.0954,0.0958,0.1006,0.1173,0.1033,0.1035,0.1045,0.1048,0.105,0.119,0,0.0564,0.0529,0.0534,0.0509,0.0494,0.0537,0.0552,0.0594,0.0651,0.0716,0.077,0.0837,0.0828,0.0883,0.0925,0.1,0.1058,0.0982,0.1139,0.1143,0.1012,0.1047,0.1057,0.1201,0.1205,0.1207,0.1209,0,0.0511,0.0503,0.0467,0.0469,0.0473,0.0478,0.0549,0.0573,0.0678,0.0731,0.0811,0.0873,0.0953,0.0954,0.1083,0.104,0.1107,0.1157,0.1164,0.1044,0.1029,0.1166,0.1235,0.1233,0.1231,0.1229,0.1228,0,0.0469,0.0445,0.0421,0.0419,0.044,0.0458,0.0495,0.0592,0.0654,0.0779,0.0864,0.094,0.1034,0.1099,0.118,0.1161,0.1323,0.1312,0.1249,0.1241,0.1329,0.1319,0.142,0.1419,0.1419,0.1419,0.1418,0,0.0402,0.0379,0.0411,0.0402,0.0427,0.0453,0.0517,0.0584,0.0705,0.0796,0.0894,0.098,0.1085,0.1179,0.1217,0.126,0.1358,0.1255,0.1267,0.1323,0.1311,0.1339,0.1328,0.1424,0.1423,0.1422,0.1421,0,0.0332,0.034,0.0332,0.0377,0.0401,0.0436,0.0535,0.0587,0.0726,0.0854,0.0908,0.1061,0.1163,0.1238,0.1368,0.1324,0.1371,0.1372,0.1428,0.1441,0.1241,0.1228,0.1315,0.1311,0.1308,0.1306,0.1303,0,0.0274,0.0264,0.0336,0.036,0.0381,0.0439,0.0479,0.0593,0.0662,0.0882,0.0935,0.1101,0.1174,0.1254,0.1309,0.136,0.1347,0.1369,0.1286,0.1227,0.1231,0.1223,0.1215,0.1298,0.1297,0.1296,0.1296,0,0.0193,0.0243,0.0264,0.0322,0.0362,0.0406,0.048,0.0534,0.0677,0.0811,0.0958,0.1035,0.1145,0.1195,0.1249,0.1274,0.1337,0.1335,0.1342,0.1264,0.1207,0.1213,0.1209,0.1284,0.1286,0.1287,0.1288,0,0.0163,0.0183,0.0235,0.0291,0.0323,0.036,0.0407,0.0487,0.058,0.0822,0.0854,0.1014,0.1137,0.1154,0.1188,0.1199,0.118,0.1143,0.1159,0.1172,0.1048,0.0951,0.0966,0,0,0,0,0,0.0137,0.0174,0.0197,0.0246,0.0261,0.0297,0.0394,0.0446,0.0591,0.0671,0.0774,0.0864,0.0952,0.102,0.1001,0.1086,0.1155,0.1055,0.1113,0.1223,0.1235,0.1096,0,0,0,0,0,0,0.0123,0.0156,0.0188,0.0186,0.0203,0.0218,0.0281,0.0381,0.044,0.0605,0.0659,0.0785,0.0875,0.0953,0.0979,0.0994,0.1006,0.1141,0.1138,0.1215,0.1227,0.1237,0.1098,0,0,0,0,0]},{"header":{"parameterUnit":"m.s-1","parameterCategory":2,"la1":30.2991,"la2":30.254,"lo1":-89.0895,"lo2":-89.0444,"dy":0.0017,"dx":0.0017,"nx":28,"ny":28,"refTime":"2024-08-05T09:00:00:Z","depth":"4","parameterNumber":3,"parameterNumberName":"V-component_of_CURRENTS"},"data":[0,0,0,0,0,0,0,0,0,0,0,0,0,0,0,0,0,0,0,0,0,0,0,0,0,0,0,0,0,0,0,0,0,0,0,0,0,0,0,0,0,0,0,0,0,0,0,0,0,0,0,0,0,0,0,0,0,0,0.0244,0.0244,0,0.0262,0.0262,0.0262,0.0254,0.0253,0.0253,0.0252,0.0244,0.0244,0.0244,0,0,0,0,0,0,0,0,0,0,0,0,0,0.0216,0.0217,0.0244,0.0244,0.0245,0.0262,0.0262,0.0262,0.0254,0.0253,0.0253,0.0252,0.0244,0.0244,0.0244,0,0,0,0,0,0,0,0,0,0,0,0,0,0.0231,0.0217,0.0244,0.0242,0.0242,0.0262,0.0262,0.0262,0.0254,0.0253,0.0253,0.0252,0.0243,0.0244,0.0244,0.026,0,0,0.0245,0.0245,0,0,0,0,0,0,0,0,0.023,0.0232,0.0242,0.0242,0.0243,0.0255,0.0249,0.026,0.0254,0.025,0.0252,0.0252,0.0245,0.0245,0.0251,0.026,0.0259,0.0245,0.0245,0.0245,0.0245,0,0,0,0,0,0,0,0.0229,0.0231,0.0251,0.0243,0.0243,0.0245,0.0246,0.0251,0.0251,0.025,0.025,0.0251,0.0245,0.0251,0.0251,0.0259,0.0245,0.0245,0.0245,0.0246,0.0271,0.0272,0,0,0,0,0,0,0.0226,0.023,0.0251,0.0252,0.0234,0.0246,0.0247,0.0252,0.0251,0.0251,0.0252,0.0251,0.0251,0.025,0.025,0.0281,0.0245,0.0246,0.0246,0.0271,0.0271,0.0272,0,0,0,0,0,0,0.0226,0.0228,0.025,0.0241,0.0244,0.0247,0.0252,0.0252,0.0257,0.0253,0.0252,0.0256,0.025,0.025,0.026,0.028,0.0246,0.0246,0.027,0.0271,0.0271,0.0336,0,0,0,0,0,0,0.0225,0.0228,0.0232,0.0241,0.0244,0.0266,0.0253,0.0253,0.0259,0.0258,0.0256,0.0255,0.0249,0.026,0.026,0.028,0.0246,0.0269,0.027,0.0271,0.0333,0.0339,0.0344,0,0,0,0,0,0.0224,0.0234,0.0232,0.0235,0.0249,0.0266,0.0269,0.0268,0.026,0.0268,0.0267,0.0255,0.0265,0.0261,0.0261,0.0282,0.0269,0.027,0.0271,0.0331,0.0338,0.0343,0,0,0,0,0,0,0.0222,0.0234,0.0232,0.0244,0.0256,0.0265,0.0273,0.0271,0.0278,0.0275,0.0267,0.0266,0.0283,0.027,0.0265,0.0289,0.0263,0.0264,0.0308,0.0314,0.032,0.0326,0.0246,0,0,0,0,0,0.0224,0.0237,0.0245,0.0257,0.0261,0.0267,0.0274,0.0275,0.0281,0.0283,0.0286,0.0283,0.029,0.0291,0.0295,0.031,0.0276,0.032,0.0325,0.033,0.0334,0.0291,0.0293,0.0275,0.0275,0.0275,0,0,0.0224,0.0235,0.024,0.0258,0.0265,0.0289,0.027,0.0284,0.0308,0.0282,0.0313,0.0306,0.0298,0.0319,0.0324,0.031,0.0318,0.0331,0.0336,0.0337,0.0292,0.0294,0.0295,0.0276,0.0276,0.0276,0,0,0.0246,0.0243,0.0266,0.028,0.0296,0.0303,0.0308,0.0322,0.0329,0.0357,0.0343,0.0346,0.036,0.0359,0.0359,0.0392,0.0349,0.039,0.0422,0.0381,0.0382,0.0382,0.0344,0.0341,0.039,0.039,0.039,0,0.0247,0.0281,0.0275,0.0305,0.0323,0.0312,0.0346,0.0356,0.0374,0.0383,0.0374,0.0383,0.0382,0.0396,0.0413,0.0406,0.037,0.0403,0.0388,0.0388,0.0387,0.0347,0.0343,0.0393,0.0393,0.0393,0.0392,0,0.0289,0.032,0.0334,0.0371,0.0386,0.0412,0.0424,0.0438,0.0443,0.045,0.0463,0.0453,0.0452,0.0455,0.0452,0.0451,0.0423,0.0402,0.0373,0.0393,0.035,0.0344,0.0398,0.0397,0.0396,0.0395,0,0,0.0288,0.0353,0.036,0.039,0.0425,0.0438,0.0478,0.0506,0.0521,0.0527,0.0536,0.0555,0.0528,0.0525,0.0506,0.0479,0.0456,0.0445,0.0442,0.0411,0.036,0.034,0.0331,0.0425,0.0424,0.0424,0.0333,0,0.0328,0.04,0.0422,0.0485,0.052,0.0526,0.0561,0.0578,0.0586,0.059,0.0565,0.0573,0.0559,0.0554,0.0525,0.0473,0.0442,0.0482,0.0344,0.034,0.0322,0.0324,0.0421,0.0329,0.0327,0.0326,0.0325,0,0.0372,0.0413,0.0489,0.0544,0.0557,0.0592,0.0626,0.0659,0.0661,0.0661,0.0647,0.0617,0.0594,0.0566,0.0481,0.0503,0.0442,0.0395,0.0389,0.0344,0.0309,0.0303,0.0314,0.0315,0.0315,0.0316,0.0317,0,0.0387,0.046,0.0523,0.0544,0.0602,0.0632,0.0663,0.0685,0.0717,0.0706,0.0713,0.0655,0.0636,0.0547,0.0461,0.0466,0.0343,0.0331,0.0253,0.025,0.0267,0.0267,0.026,0.026,0.026,0.0261,0.0261,0,0.0433,0.0479,0.0534,0.0572,0.0625,0.0657,0.0714,0.0733,0.0759,0.0787,0.0752,0.0735,0.0631,0.0549,0.0455,0.0334,0.0333,0.0258,0.0225,0.0296,0.0301,0.0262,0.0263,0.0257,0.0258,0.0259,0.0259,0,0.0456,0.05,0.0569,0.063,0.0648,0.069,0.0766,0.0793,0.0828,0.0857,0.0859,0.08,0.0689,0.057,0.0417,0.0343,0.0219,0.0173,0.0258,0.0231,0.0154,0.016,0.0079,0.0078,0.0076,0.0075,0.0074,0,0.0478,0.052,0.0602,0.0636,0.0673,0.0735,0.0769,0.0823,0.0858,0.0888,0.0888,0.0809,0.0744,0.0514,0.0382,0.0188,0.0167,0.011,0.014,0.0159,0.0135,0.0143,0.015,0.0072,0.0072,0.0072,0.0071,0,0.0506,0.0543,0.0592,0.0663,0.0712,0.0772,0.0835,0.0864,0.0916,0.0941,0.0906,0.0804,0.067,0.0494,0.0347,0.0208,0.0151,0.0097,0.0099,0.0127,0.015,0.0129,0.0138,0.0067,0.0068,0.0068,0.0068,0,0.0513,0.0546,0.0611,0.0675,0.0745,0.0806,0.0833,0.0861,0.0902,0.0936,0.0902,0.0782,0.0709,0.0502,0.0356,0.0226,0.0199,0.0173,0.0171,0.0174,0.0231,0.0277,0.0204,0,0,0,0,0,0.0519,0.0556,0.0609,0.0684,0.0761,0.0811,0.0872,0.0889,0.0927,0.0904,0.092,0.0791,0.0594,0.0498,0.0362,0.0325,0.017,0.0162,0.0138,0.0043,0.0048,0.0098,0,0,0,0,0,0,0.0513,0.0572,0.0603,0.0695,0.075,0.0827,0.0878,0.0891,0.0883,0.0898,0.0781,0.0763,0.0551,0.067,0.036,0.0321,0.029,0.0075,0.0072,0.0041,0.0045,0.0049,0.0102,0,0,0,0,0]}]]